Regional Weather Roundup
Issued by NWS

Home | Current Version | Previous Version | Graphics & Text | Print | Product List | Glossary Off
Versions: 1 2 3 4 5 6 7 8 9 10 11 12 13 14 15 16 17 18 19 20 21 22 23 24 25 26 27 28 29 30 31 32 33 34 35 36 37 38 39 40 41 42 43 44 45 46 47 48 49 50

000
ASUS43 KMKX 311211
RWRWI

WISCONSIN REGIONAL WEATHER ROUNDUP
NATIONAL WEATHER SERVICE MILWAUKEE/SULLIVAN WI
700 AM CDT MON AUG 31 2015

NOTE: "FAIR" INDICATES FEW OR NO CLOUDS BELOW 12,000 FEET WITH NO
SIGNIFICANT WEATHER AND/OR OBSTRUCTIONS TO VISIBILITY.

WIZ001-002-006>008-014>016-023>028-311300-
NORTHWEST WISCONSIN

CITY           SKY/WX    TMP DP  RH WIND       PRES   REMARKS
SUPERIOR ARPT  FOG       55  55 100 CALM      29.89R VSB<1/4
6HR MIN TEMP:  53; 6HR MAX TEMP:  67;

ASHLAND        CLEAR     61  61 100 S3        29.92S
6HR MIN TEMP:  61; 6HR MAX TEMP:  66;

HAYWARD        CLOUDY    64  62  93 S8        29.96R
6HR MIN TEMP:  64; 6HR MAX TEMP:  66;

SIREN          CLEAR     62  61  96 CALM      29.94R FOG
6HR MIN TEMP:  62; 6HR MAX TEMP:  67;

CUMBERLAND     CLOUDY    63  63 100 S7        29.97R FOG
RICE LAKE      CLOUDY    64  63  95 S6        29.99R FOG
6HR MIN TEMP:  60; 6HR MAX TEMP:  64;

CHETEK         CLOUDY   N/A N/A N/A E6        29.99R FOG
LADYSMITH      FOG       63  62  97 SE5       30.01S VSB 1/4
6HR MIN TEMP:  62; 6HR MAX TEMP:  64;

EAU CLAIRE     CLOUDY    63  61  93 S6        29.98R FOG
6HR MIN TEMP:  57; 6HR MAX TEMP:  63;

MENOMONIE      CLOUDY    62  62 100 SE3       29.98S FOG
6HR MIN TEMP:  58; 6HR MAX TEMP:  63;

NEW RICHMOND   CLOUDY    64  64 100 S8        29.96R FOG
6HR MIN TEMP:  62; 6HR MAX TEMP:  64;

OSCEOLA        CLOUDY    65  65 100 S7        29.97S FOG
6HR MIN TEMP:  63; 6HR MAX TEMP:  65;

$$

WIZ003>005-009-010-017-018-311300-
NORTH CENTRAL WISCONSIN

CITY           SKY/WX    TMP DP  RH WIND       PRES   REMARKS
MANITOWISH WTR CLOUDY    63  63 100 SW7       30.00R
6HR MIN TEMP:  63; 6HR MAX TEMP:  64;

ARBOR VITAE    CLOUDY    63  61  94 SW6       30.01R
6HR MIN TEMP:  62; 6HR MAX TEMP:  64;

WOODRUFF       CLOUDY    63  61  94 SW6       30.01R
6HR MIN TEMP:  62; 6HR MAX TEMP:  64;

RHINELANDER    CLOUDY    64  62  93 W6        30.03R FOG
6HR MIN TEMP:  63; 6HR MAX TEMP:  64;

EAGLE RIVER    CLOUDY    63  62  97 SW9       30.01R
6HR MIN TEMP:  63; 6HR MAX TEMP:  64;

LAND O LAKES   CLOUDY    63  62  96 SW3       30.01S
6HR MIN TEMP:  63; 6HR MAX TEMP:  64;

PHILLIPS       FOG       63  63 100 SW6       30.00R VSB 3/4
6HR MIN TEMP:  62; 6HR MAX TEMP:  64;

TOMAHAWK       FOG       62  62  97 CALM      30.03R VSB 3/4
6HR MIN TEMP:  58; 6HR MAX TEMP:  63;

MEDFORD        CLOUDY    61  61 100 S3        30.02S FOG
6HR MIN TEMP:  58; 6HR MAX TEMP:  61;

MERRILL        FOG       62  62 100 SW6       30.03R VSB 1/2
6HR MIN TEMP:  55; 6HR MAX TEMP:  63;

$$

WIZ029-030-035-036-043>047-311300-
CENTRAL WISCONSIN

CITY           SKY/WX    TMP DP  RH WIND       PRES   REMARKS
WAUSAU         FOG       62  61  96 SW5       30.01S VSB 1/4
6HR MIN TEMP:  62; 6HR MAX TEMP:  64;

MOSINEE        FOG       61  61 100 CALM      30.04R VSB 1/4
MARSHFIELD     FOG       61  58  90 S3        30.03R VSB 1/4
6HR MIN TEMP:  60; 6HR MAX TEMP:  62;

STEVENS POINT  FOG       60  60 100 CALM      30.04R VSB<1/4
6HR MIN TEMP:  56; 6HR MAX TEMP:  60;

WAUPACA        CLOUDY    61  59  96 CALM      30.03S
6HR MIN TEMP:  57; 6HR MAX TEMP:  61;

WAUTOMA        CLOUDY    60  60 100 CALM      30.05R
6HR MIN TEMP:  57; 6HR MAX TEMP:  60;

WISC RAPIDS    CLOUDY    62  60  93 SW5       30.04R FOG
6HR MIN TEMP:  58; 6HR MAX TEMP:  62;

CAMP DOUGLAS   CLOUDY    59  59 100 SE3       30.03R FOG
$$

WIZ011>013-019>022-031-037>040-048>050-311300-
NORTHEAST WISCONSIN

CITY           SKY/WX    TMP DP  RH WIND       PRES   REMARKS
ANTIGO         FOG       62  62 100 W7        30.03R VSB 1/4
SHAWANO        FOG       64  63  96 SW3       30.02R VSB 1/2
6HR MIN TEMP:  62; 6HR MAX TEMP:  65;

OCONTO         CLOUDY    60  60 100 W5        30.00S
6HR MIN TEMP:  56; 6HR MAX TEMP:  62;

STURGEON BAY   CLEAR     64  61  88 SW7       30.03R
6HR MIN TEMP:  63; 6HR MAX TEMP:  64;

GREEN BAY      FOG       62  61  96 SW5       30.02S VSB 1/4
6HR MIN TEMP:  61; 6HR MAX TEMP:  63;

MANITOWOC      CLEAR     56  55  97 MISG      30.03S FOG
6HR MIN TEMP:  54; 6HR MAX TEMP:  61;

APPLETON       FOG       61  61 100 VRB3      30.02R VSB 1
CLINTONVILLE   FOG       61  61 100 SW5       30.03R VSB<1/4
OSHKOSH        FOG       59  57  93 S5        30.04R VSB 1/2
6HR MIN TEMP:  56; 6HR MAX TEMP:  63;

$$

WIZ032>034-041-042-053>061-311300-
SOUTHWEST WISCONSIN

CITY           SKY/WX    TMP DP  RH WIND       PRES   REMARKS
LA CROSSE      CLOUDY    65  64  97 S8        30.01R FOG
6HR MIN TEMP:  62; 6HR MAX TEMP:  66;

SPARTA         CLOUDY    58  57  95 CALM      30.03R
6HR MIN TEMP:  52; 6HR MAX TEMP:  58;

VIROQUA          N/A     62  62 100 S6        30.04S
6HR MIN TEMP:  59; 6HR MAX TEMP:  64;

BOSCOBEL       FOG       60  59  96 CALM      30.04R VSB<1/4
6HR MIN TEMP:  58; 6HR MAX TEMP:  61;

PRAIRIE DU CHI FOG       58  57  96 SE3       30.03S VSB 3/4
6HR MIN TEMP:  58; 6HR MAX TEMP:  62;

PLATTEVILLE      N/A     60  60 100 SE3       30.05R VSB 1/2
6HR MIN TEMP:  59; 6HR MAX TEMP:  62;

$$

WIZ056-057-062-063-064-067-068-311300-
SOUTH CENTRAL WISCONSIN

CITY           SKY/WX    TMP DP  RH WIND       PRES   REMARKS
REEDSBURG      CLOUDY    61  61 100 CALM      30.04S FOG
6HR MIN TEMP:  58; 6HR MAX TEMP:  62;

BARABOO/DELLS  CLOUDY    63  62  95 CALM      30.05S FOG
6HR MIN TEMP:  58; 6HR MAX TEMP:  63;

LONE ROCK      CLOUDY    60  59  96 SE3       30.05R
6HR MIN TEMP:  57; 6HR MAX TEMP:  61;

MINERAL POINT  FOG       61  59  94 CALM      30.06R VSB<1/4
MADISON        CLOUDY    58  57  97 CALM      30.06R FOG
6HR MIN TEMP:  56; 6HR MAX TEMP:  66;

MIDDLETON      CLOUDY    60  60 100 CALM      30.07R
6HR MIN TEMP:  55; 6HR MAX TEMP:  63;

WATERTOWN      FOG       55  55 100 CALM      30.06R VSB<1/4
6HR MIN TEMP:  54; 6HR MAX TEMP:  61;

MONROE         FOG       61  59  94 SW6       30.06R VSB 1/4
JANESVILLE     FOG       61  59  94 CALM      30.05R VSB 1/8
$$

WIZ051-052-058>065-066-070>072-311300-
SOUTHEAST WISCONSIN

CITY           SKY/WX    TMP DP  RH WIND       PRES   REMARKS
MILWAUKEE      FOG       61  60  97 SW6       30.06R VSB 1/4
6HR MIN TEMP:  60; 6HR MAX TEMP:  63;

WAUKESHA       FOG       55  55 100 CALM      30.07R VSB 1
MILWAUKEE/TIMM CLEAR     57  55  94 CALM      30.06S FOG
RACINE         MOCLDY    61  59  93 SW5       30.07S FOG
6HR MIN TEMP:  60; 6HR MAX TEMP:  62;

BURLINGTON     FOG       56  56  99 CALM      30.07R VSB<1/4
6HR MIN TEMP:  53; 6HR MAX TEMP:  56;

KENOSHA        FOG       61  60  97 SW3       30.07R VSB<1/4
6HR MIN TEMP:  57; 6HR MAX TEMP:  61;

FOND DU LAC    FOG       61  60  97 SW3       30.05R VSB 1/4
6HR MIN TEMP:  58; 6HR MAX TEMP:  63;

SHEBOYGAN      CLEAR     57  57 100 S3        30.04S FOG
6HR MIN TEMP:  56; 6HR MAX TEMP:  59;

WEST BEND      FOG       55  54  94 CALM      30.05R VSB<1/4
JUNEAU         FOG       56  56  99 CALM      30.07R VSB<1/4
6HR MIN TEMP:  55; 6HR MAX TEMP:  61; 6HR PCP:  0.01;

$$

LSZ147-162-311300-
LAKE SUPERIOR

STATION/POSITION TIME  TEMP    WIND        PRES    WAVE
                       AIR SEA DIR/SP/G            HT/PER
                 (UTC) (F)     (DEG/KT/KT) (MB)    (FT/S)
W MID LAKE BUOY  1150   59 54  210/ 10/ 10 1012.5R   1/ 3
DEVILS ISLAND    1200   64     180/  7/ 10 1012.2R
PORT WING        1140   66     180/  7/ 11 1012.2F
SAXON HARBOR     1100   65      CALM  /  4 1012.5
$$

LMZ867-665-643>646-311300-
LAKE MICHIGAN

STATION/POSITION TIME  TEMP    WIND        PRES    WAVE
                       AIR SEA DIR/SP/G            HT/PER
                 (UTC) (F)     (DEG/KT/KT) (MB)    (FT/S)
CHAMBERS ISLAND  1100   62     190/  5/ 11 1015.2R



USA.gov is the U.S. government's official web portal to all federal, state and local government web resources and services.